星链-4075 (STARLINK-4075 )

导读

STARLINK-4075是美国SpaceX公司星链(Starlink)星座中的卫星,于2022年5月18日发射升空。星链项目旨在构建全球卫星互联网星座,为全球偏远地区、海洋航空等场景提供低延迟宽带网络服务,该卫星承担着补充星座网络容量、提升全球网络覆盖能力的任务。

Basic Information
目录编号:
52670
目录名称:
STARLINK-4075
国际标识:
2022-053Q
轨道中心:
EARTH
卫星名称:
星链-4075
卫星全名:
星链-4075 (STARLINK-4075 )
卫星状态:
在轨 (已飞行1578 天)
发射日期:
2022-05-18 UTC
国别 :
美国 (US)
星等 :
--
This satellite is enrolled in the Space Conjunction Data Service (SCDS) and the current flight risk assessment level is: No High Risk
Orbit Information
数据来源 国际轨道数据
星历时间: 2026-09-12T00:06:38+0800
18小时前
查看轨道信息
半长轴: 6917.899km
偏心率: 0.0001236
轨道倾角: 53.161°
近地点辐角 87.638°
升交点赤经 38.672°
平近点角 272.475°
近地点: 538.906km
远地点: 540.618km
周期: 95.438分钟
每日圈数: 15.088341
Detailed Information
固有亮度:
5
最大亮度:
2.5
卫星平台:
Starlink v1.5
覆盖范围:
全球
运营商:
太空探索技术公司
运营商所在国:
美国
制造商(研发单位):
太空探索技术公司
制造商所在国:
美国
使用方式:
暂无
Satellite Introduction
星链(Starlink)计划是由太空探索技术公司(SpaceX)提出的一个巨型低轨卫星互联网星座项目,计划在2019年至2024年间在太空搭建由约1.2万颗卫星组成的“星链”网络,其中1584颗将部署在地球上空550千米处的近地轨道,并从2020年开始工作。该卫星仍在工作。
2D Orbit Map
3D Orbit Map
Orbit Altitude Analysis Chart
Orbit Inclination Analysis Chart
Orbit Comprehensive Analysis Chart
View Comprehensive Chart
Conjunction Data List
Event ID Objects TCA Miss Dist (km) Collision Risk Probability Collision Risk Index (CRI) Action
CDM_260914-172205-267006-081121
2026-09-14T
17:22:13+0000
1.640 km
极远距离
4.903051E-6 低风险 0.49
CDM_260905-133103-602805-267021
2026-09-05T
13:31:58+0000
1.863 km
极远距离
3.044563E-6 低风险 0.45
CDM_260913-204505-267006-335323
2026-09-13T
20:45:30+0000
2.634 km
极远距离
1.582535E-6 低风险 0.39
Miss Distance Evolution Trend with All Objects
Collision Probability Evolution Trend with All Objects